User: anonymous
Location: UBC Liquid-Mirror Observatory
(49.2876°N, 122.5728°W)
Time: 23:16:02
(UTC-07:00)
Language:

Cosmos 1315 - Orbit

View from above orbital plane
View from above orbital plane
View from above satellite
View from above satellite

Ground track
Ground track

The orbit data is extracted from the following two-line orbital elements,

1 12903U 81103A   14232.40598081  .00015127  00000-0  27019-3 0  2446
2 12903 081.1324 070.9160 0004922 061.4365 012.8526 15.49892405800257
Epoch (UTC): 20 August 2014 09:44:36
Eccentricity: 0.0004922
inclination: 81.1324°
perigee height: 414 km
apogee height: 420 km
right ascension of ascending node: 70.9160°
argument of perigee: 61.4365°
revolutions per day: 15.49892405
mean anomaly at epoch: 12.8526°
orbit number at epoch: 80025

The dashed part of the orbit path shows where the satellite is in the earth's shadow,  

DLR